Simultaneous Nadir Overpasses (SNOs) Predictions

Prediction of SNOs between NOAA-20 and AQUA Satellite Orbit:

Table of predicted SNOs for the next 14.0 days since TLE Epoch: 1/18/2025
Index Date (NOAA-20) Time (NOAA-20) Lat,Lon (NOAA-20) SZA (NOAA-20 ) Date (AQUA) Time (AQUA) Lat,Lon (AQUA) SZA (AQUA ) Distance(km) Time Diff (sec)
1 01/19/2025 11:08:56 81.32, -57.13 107.41 01/19/2025 11:08:58 81.31, -57.19 107.41 1.13 2
2 01/21/2025 21:30:38 -81.32, -32.48 73.12 01/21/2025 21:30:42 -81.32, -32.33 73.14 2.56 4
3 01/24/2025 07:52:19 81.32, -7.82 106.33 01/24/2025 07:52:25 81.32, -7.81 106.33 0.19 6
4 01/26/2025 18:14:00 -81.32, 17.10 74.30 01/26/2025 18:14:06 -81.32, 17.01 74.29 1.76 6
5 01/29/2025 04:35:41 81.32, 41.23 105.15 01/29/2025 04:35:45 81.31, 41.35 105.13 2.02 4



Historial Predications of SNOs between NOAA-20 and AQUA
